This is the latest recevied weather packets stored in our database for station/object KA1JKB. If no packets are shown the sender has not sent any weather packets the latest 10 day(s).
| Time | Temp. | Humidity | Pressure | Rain* | Wind** | Luminosity | Snow |
|---|---|---|---|---|---|---|---|
| 1777298811 | 13.89° C | 80% | 1015.5 hPa | 0 mm | - | 587 W/m² | - |
| 1777298507 | 13.89° C | 80% | 1015.6 hPa | 0 mm | - | 559 W/m² | - |
| 1777298204 | 13.89° C | 79% | 1015.9 hPa | 0 mm | - | 544 W/m² | - |
| 1777297899 | 13.33° C | 81% | 1016 hPa | 0 mm | - | 518 W/m² | - |
| 1777297596 | 13.33° C | 81% | 1015.9 hPa | 0 mm | - | 527 W/m² | - |
| 1777297293 | 13.33° C | 80% | 1016.2 hPa | 0 mm | - | 518 W/m² | - |
| 1777296990 | 12.78° C | 81% | 1015.9 hPa | 0 mm | - | 499 W/m² | - |
| 1777296687 | 12.78° C | 80% | 1016 hPa | 0 mm | - | 415 W/m² | - |
| 1777296368 | 12.78° C | 82% | 1015.8 hPa | 0 mm | - | 510 W/m² | - |
| 1777296062 | 12.78° C | 82% | 1015.7 hPa | 0 mm | - | 511 W/m² | - |
| 1777295760 | 12.22° C | 83% | 1015.8 hPa | 0 mm | - | 488 W/m² | - |
| 1777295457 | 12.22° C | 83% | 1016 hPa | 0 mm | - | 488 W/m² | - |
| 1777295154 | 11.67° C | 84% | 1016.2 hPa | 0 mm | - | 397 W/m² | - |
| 1777294852 | 11.67° C | 85% | 1016.4 hPa | 0 mm | - | 363 W/m² | - |
| 1777294552 | 11.11° C | 85% | 1016.1 hPa | 0 mm | - | 297 W/m² | - |
| 1777294249 | 11.11° C | 86% | 1016.3 hPa | 0 mm | - | 254 W/m² | - |
| 1777293946 | 10.56° C | 87% | 1015.8 hPa | 0 mm | - | 234 W/m² | - |
| 1777293642 | 10.56° C | 88% | 1016 hPa | 0 mm | - | 180 W/m² | - |
| 1777293337 | 10.56° C | 88% | 1015.9 hPa | 0 mm | - | 154 W/m² | - |
| 1777293033 | 10.56° C | 89% | 1015.6 hPa | 0 mm | - | 154 W/m² | - |
| 1777292732 | 10° C | 89% | 1015.6 hPa | 0 mm | - | 133 W/m² | - |
| 1777292428 | 10° C | 89% | 1015.5 hPa | 0 mm | - | 134 W/m² | - |
| 1777292126 | 10° C | 89% | 1015.7 hPa | 0 mm | - | 127 W/m² | - |
| 1777291821 | 10° C | 91% | 1015.7 hPa | 0 mm | - | 120 W/m² | - |
| 1777291518 | 9.44° C | 92% | 1015.7 hPa | 0 mm | - | 107 W/m² | - |
* Rain latest hour (hover to see other rain measurements)
** Current wind speed in m/s (hover to see current wind gust speed)